When you browse on this site, cookies collect data to enhance your experience and personalize the content and advertising you see.
Visit our Privacy Policy to learn more. By continuing to use the site, you agree to this use of cookies and data.
  • în România
  • Lista ţărilor
  • Pe 7 zile
  • Temperatura apei
  • Meteo pe hartă
  • Widget-uri
  • user-avatar
    Intrare

    Meteo pe oră la Achisu

    Astăzi, 17 Octombrie, Joi

    Timp Temperatura Precipitaţii Vânt Presiune Umiditate
    00:00 +18°C° 0 mm 1 m/s 748 mmHg 75%
    01:00 +18°C° 0 mm 1 m/s 748 mmHg 76%
    02:00 +16°C° 0 mm 1 m/s 748 mmHg 78%
    03:00 +16°C° 0 mm 1 m/s 749 mmHg 80%
    04:00 +16°C° 0 mm 1 m/s 749 mmHg 79%
    05:00 +16°C° 0 mm 1 m/s 749 mmHg 79%
    06:00 +16°C° 0 mm 1 m/s 749 mmHg 78%
    07:00 +18°C° 0 mm 1 m/s 749 mmHg 73%
    08:00 +18°C° 0 mm 2 m/s 749 mmHg 67%
    09:00 +20°C° 0 mm 1 m/s 749 mmHg 61%
    10:00 +20°C° 0 mm 2 m/s 749 mmHg 59%
    11:00 +20°C° 0 mm 2 m/s 749 mmHg 57%
    12:00 +21°C° 0 mm 2 m/s 749 mmHg 55%
    13:00 +21°C° 0 mm 2 m/s 748 mmHg 56%
    14:00 +20°C° 0 mm 2 m/s 748 mmHg 58%
    15:00 +20°C° 0 mm 3 m/s 748 mmHg 61%
    16:00 +19°C° 0 mm 2 m/s 748 mmHg 68%
    17:00 +18°C° 0 mm 2 m/s 748 mmHg 74%
    18:00 +18°C° 0 mm 1 m/s 748 mmHg 81%
    19:00 +18°C° 0 mm 1 m/s 748 mmHg 80%
    20:00 +18°C° 0 mm 1 m/s 748 mmHg 79%
    21:00 +18°C° 0 mm 1 m/s 748 mmHg 79%
    22:00 +16°C° 0 mm 1 m/s 747 mmHg 79%
    23:00 +16°C° 0 mm 1 m/s 747 mmHg 79%

    Mâine, 18 Octombrie, Vineri

    Timp Temperatura Precipitaţii Vânt Presiune Umiditate
    00:00 +16°C° 0 mm 1 m/s 747 mmHg 79%
    01:00 +16°C° 0 mm 1 m/s 747 mmHg 78%
    02:00 +16°C° 0 mm 1 m/s 746 mmHg 78%
    03:00 +15°C° 0 mm 1 m/s 746 mmHg 78%
    04:00 +15°C° 0 mm 1 m/s 746 mmHg 75%
    05:00 +15°C° 0 mm 2 m/s 746 mmHg 72%
    06:00 +15°C° 0 mm 2 m/s 746 mmHg 70%
    07:00 +17°C° 0 mm 2 m/s 746 mmHg 64%
    08:00 +18°C° 0 mm 2 m/s 746 mmHg 59%
    09:00 +20°C° 0 mm 2 m/s 746 mmHg 53%
    10:00 +21°C° 0 mm 2 m/s 746 mmHg 55%
    11:00 +21°C° 0 mm 2 m/s 745 mmHg 56%
    12:00 +22°C° 0 mm 3 m/s 745 mmHg 57%
    13:00 +22°C° 0 mm 3 m/s 745 mmHg 61%
    14:00 +21°C° 0 mm 2 m/s 745 mmHg 65%
    15:00 +21°C° 0 mm 2 m/s 744 mmHg 69%
    16:00 +20°C° 0 mm 2 m/s 744 mmHg 74%
    17:00 +20°C° 0 mm 1 m/s 744 mmHg 79%
    18:00 +19°C° 0 mm 1 m/s 744 mmHg 84%
    19:00 +19°C° 0 mm 1 m/s 745 mmHg 83%
    20:00 +19°C° 0 mm 1 m/s 745 mmHg 81%
    21:00 +16°C° 0 mm 0 m/s 745 mmHg 79%
    22:00 +18°C° 0 mm 1 m/s 745 mmHg 77%
    23:00 +18°C° 0 mm 1 m/s 745 mmHg 76%

    Poimâine, 19 Octombrie, Sâmbătă

    Timp Temperatura Precipitaţii Vânt Presiune Umiditate
    00:00 +18°C° 0 mm 1 m/s 744 mmHg 74%
    01:00 +18°C° 0 mm 1 m/s 744 mmHg 74%
    02:00 +18°C° 0 mm 1 m/s 744 mmHg 73%
    03:00 +16°C° 0 mm 1 m/s 744 mmHg 73%
    04:00 +16°C° 0 mm 1 m/s 745 mmHg 72%
    05:00 +16°C° 0 mm 1 m/s 745 mmHg 71%
    06:00 +16°C° 0 mm 1 m/s 745 mmHg 70%
    07:00 +18°C° 0 mm 1 m/s 745 mmHg 67%
    08:00 +20°C° 0 mm 1 m/s 745 mmHg 63%
    09:00 +21°C° 0 mm 1 m/s 746 mmHg 60%
    10:00 +21°C° 0 mm 2 m/s 746 mmHg 60%
    11:00 +21°C° 0 mm 2 m/s 746 mmHg 60%
    12:00 +23°C° 0 mm 2 m/s 746 mmHg 60%
    13:00 +21°C° 0 mm 2 m/s 746 mmHg 63%
    14:00 +21°C° 0 mm 2 m/s 745 mmHg 65%
    15:00 +21°C° 0 mm 2 m/s 745 mmHg 68%
    16:00 +21°C° 0 mm 1 m/s 745 mmHg 74%
    17:00 +20°C° 0 mm 1 m/s 746 mmHg 80%
    18:00 +17°C° 0 mm 0 m/s 746 mmHg 85%
    19:00 +16°C° 0 mm 0 m/s 746 mmHg 84%
    20:00 +16°C° 0 mm 0 m/s 747 mmHg 83%
    21:00 +18°C° 0 mm 1 m/s 747 mmHg 82%
    22:00 +18°C° 0 mm 1 m/s 747 mmHg 81%
    23:00 +16°C° 0 mm 1 m/s 747 mmHg 80%

    20 Octombrie, Duminică

    Timp Temperatura Precipitaţii Vânt Presiune Umiditate
    00:00 +16°C° 0 mm 1 m/s 747 mmHg 78%
    01:00 +16°C° 0 mm 1 m/s 747 mmHg 79%
    02:00 +16°C° 0 mm 1 m/s 747 mmHg 80%
    03:00 +15°C° 0 mm 1 m/s 747 mmHg 80%
    04:00 +15°C° 0 mm 1 m/s 747 mmHg 80%
    05:00 +15°C° 0 mm 1 m/s 747 mmHg 80%
    06:00 +15°C° 0 mm 1 m/s 748 mmHg 80%
    07:00 +16°C° 0 mm 1 m/s 748 mmHg 74%
    08:00 +18°C° 0 mm 2 m/s 748 mmHg 68%
    09:00 +19°C° 0 mm 2 m/s 748 mmHg 62%
    10:00 +20°C° 0 mm 2 m/s 748 mmHg 59%
    11:00 +21°C° 0 mm 2 m/s 748 mmHg 56%
    12:00 +21°C° 0 mm 3 m/s 748 mmHg 53%
    13:00 +21°C° 0 mm 3 m/s 748 mmHg 53%
    14:00 +20°C° 0 mm 2 m/s 748 mmHg 54%
    15:00 +20°C° 0 mm 2 m/s 748 mmHg 55%
    16:00 +19°C° 0 mm 2 m/s 748 mmHg 61%
    17:00 +19°C° 0 mm 1 m/s 748 mmHg 67%
    18:00 +18°C° 0 mm 1 m/s 748 mmHg 73%
    19:00 +16°C° 0 mm 1 m/s 748 mmHg 75%
    20:00 +16°C° 0 mm 1 m/s 749 mmHg 76%
    21:00 +16°C° 0 mm 1 m/s 749 mmHg 77%
    22:00 +15°C° 0 mm 1 m/s 749 mmHg 77%
    23:00 +15°C° 0 mm 1 m/s 749 mmHg 77%

    21 Octombrie, Luni

    Timp Temperatura Precipitaţii Vânt Presiune Umiditate
    00:00 +15°C° 0 mm 1 m/s 749 mmHg 77%
    01:00 +15°C° 0 mm 1 m/s 748 mmHg 77%
    02:00 +14°C° 0 mm 1 m/s 748 mmHg 77%
    03:00 +14°C° 0 mm 1 m/s 748 mmHg 77%
    04:00 +14°C° 0 mm 1 m/s 748 mmHg 77%
    05:00 +14°C° 0 mm 1 m/s 748 mmHg 76%
    06:00 +14°C° 0 mm 1 m/s 749 mmHg 76%
    07:00 +15°C° 0 mm 1 m/s 749 mmHg 68%
    08:00 +17°C° 0 mm 2 m/s 749 mmHg 61%
    09:00 +19°C° 0 mm 2 m/s 749 mmHg 53%
    10:00 +19°C° 0 mm 2 m/s 749 mmHg 53%
    11:00 +20°C° 0 mm 2 m/s 749 mmHg 52%
    12:00 +20°C° 0 mm 3 m/s 749 mmHg 51%
    13:00 +20°C° 0 mm 3 m/s 748 mmHg 53%
    14:00 +20°C° 0 mm 2 m/s 748 mmHg 55%
    15:00 +19°C° 0 mm 2 m/s 748 mmHg 57%
    16:00 +18°C° 0 mm 2 m/s 748 mmHg 64%
    17:00 +18°C° 0 mm 1 m/s 748 mmHg 71%
    18:00 +16°C° 0 mm 1 m/s 748 mmHg 79%
    19:00 +15°C° 0 mm 1 m/s 748 mmHg 79%
    20:00 +15°C° 0 mm 1 m/s 748 mmHg 80%
    21:00 +15°C° 0 mm 1 m/s 748 mmHg 80%
    22:00 +15°C° 0 mm 1 m/s 748 mmHg 80%
    23:00 +15°C° 0 mm 1 m/s 748 mmHg 79%

    22 Octombrie, Marţi

    Timp Temperatura Precipitaţii Vânt Presiune Umiditate
    00:00 +14°C° 0 mm 1 m/s 748 mmHg 79%
    01:00 +14°C° 0 mm 1 m/s 748 mmHg 79%
    02:00 +14°C° 0 mm 1 m/s 748 mmHg 79%
    03:00 +14°C° 0 mm 1 m/s 747 mmHg 79%
    04:00 +14°C° 0 mm 1 m/s 747 mmHg 79%
    05:00 +14°C° 0 mm 1 m/s 747 mmHg 80%
    06:00 +13°C° 0 mm 1 m/s 747 mmHg 80%
    07:00 +15°C° 0 mm 1 m/s 747 mmHg 74%
    08:00 +16°C° 0 mm 1 m/s 748 mmHg 67%
    09:00 +19°C° 0 mm 1 m/s 748 mmHg 61%
    10:00 +19°C° 0 mm 2 m/s 747 mmHg 59%
    11:00 +19°C° 0 mm 2 m/s 747 mmHg 58%
    12:00 +20°C° 0 mm 2 m/s 747 mmHg 56%
    13:00 +20°C° 0 mm 2 m/s 747 mmHg 57%
    14:00 +19°C° 0 mm 2 m/s 747 mmHg 57%
    15:00 +19°C° 0 mm 2 m/s 746 mmHg 58%
    16:00 +18°C° 0 mm 2 m/s 746 mmHg 63%
    17:00 +17°C° 0 mm 2 m/s 746 mmHg 69%
    18:00 +16°C° 0 mm 2 m/s 746 mmHg 74%
    19:00 +16°C° 0 mm 1 m/s 746 mmHg 75%
    20:00 +16°C° 0 mm 1 m/s 746 mmHg 75%
    21:00 +16°C° 0 mm 1 m/s 746 mmHg 75%
    22:00 +15°C° 0 mm 1 m/s 746 mmHg 76%
    23:00 +15°C° 0 mm 1 m/s 746 mmHg 77%
    Arată mai mult